DW8626 Madrid ES current weather conditions

sailwx.info

Wind from 297

Air temperature 22.8° C
Dewpoint 11.2° C

Last reported at 2014-Aug-29 04:56 UTC.
Time now 2014-Aug-29 05:31 UTC

Location: N 40°29' W 003°43'.
View on Google Maps.

See reports from other nearby stations

  
Tides and Currents Weather Stations Pressure Air Temp Water Temp Dewpoint Dewpoint Depression Visibility Wind Speed Wind Dir Waves Ship Positions
date/time (UTC)wind fromknots sea level pressurealtimeterstation pressurevisibilityair tempwater tempwave heightnotes
2014-Aug-29 04:56 297 22.8
2014-Aug-29 04:41 099 22.8
2014-Aug-29 04:26 248 22.8
2014-Aug-29 04:11 214 23.3
2014-Aug-29 03:59 231 23.9
2014-Aug-29 03:26 179 24.4
2014-Aug-29 03:11 210 0 gusting 1 24.4
2014-Aug-29 02:56 217 24.4
2014-Aug-29 02:41 070 25.0
2014-Aug-29 02:26 252 0 gusting 7 25.0
2014-Aug-29 02:11 094 0 gusting 6 25.0
2014-Aug-29 01:56 082 2 gusting 3 25.0
2014-Aug-29 01:41 139 25.0
2014-Aug-29 01:28 184 25.0
2014-Aug-29 00:56 120 25.0
2014-Aug-29 00:41 309 25.0
2014-Aug-29 00:26 284 25.6
2014-Aug-29 00:11 288 25.6
2014-Aug-28 23:56 225 25.6
2014-Aug-28 23:41 208 25.6
2014-Aug-28 23:26 316 1 gusting 5 25.6
2014-Aug-28 23:11 173 25.0
2014-Aug-28 22:59 172 25.0
2014-Aug-28 22:26 207 0 gusting 1 25.6
2014-Aug-28 22:11 200 25.6
2014-Aug-28 21:56 224 1 gusting 2 26.1
2014-Aug-28 21:41 239 26.1
2014-Aug-28 21:26 214 26.1
2014-Aug-28 21:11 236 0 gusting 1 26.7
2014-Aug-28 20:56 225 0 gusting 3 27.2
2014-Aug-28 20:41 208 3 gusting 6 27.2
2014-Aug-28 20:28 257 0 gusting 3 27.8
2014-Aug-28 20:12 165 28.3
2014-Aug-28 19:56 199 28.9
2014-Aug-28 19:41 238 3 gusting 8 29.4
2014-Aug-28 19:26 204 29.4
2014-Aug-28 19:12 214 3 gusting 6 30.0
2014-Aug-28 18:28 262 2 gusting 10 31.7
2014-Aug-28 17:57 229 6 gusting 7 32.2
2014-Aug-28 16:57 155 8 gusting 13 32.2
2014-Aug-28 16:43 156 6 gusting 13 32.8
2014-Aug-28 16:27 231 6 gusting 16 32.8
2014-Aug-28 16:13 183 7 gusting 13 32.8
2014-Aug-28 15:58 181 8 gusting 16 33.3
2014-Aug-28 14:43 172 6 gusting 13 32.8
2014-Aug-28 14:28 259 6 gusting 14 32.8
2014-Aug-28 13:43 243 6 gusting 11 32.2
2014-Aug-28 10:57 161 2 gusting 7 30.6
2014-Aug-28 10:43 134 30.6
2014-Aug-28 10:13 205 29.4
2014-Aug-28 09:12 101 0 gusting 0 28.3
2014-Aug-28 08:57 096 27.2
2014-Aug-28 08:41 124 27.2
2014-Aug-28 08:02 146 24.4
2014-Aug-28 07:11 099 23.3
2014-Aug-28 06:42 016 3 gusting 4 23.3
2014-Aug-28 06:27 049 22.8
2014-Aug-28 04:41 061 2 gusting 6 23.3
2014-Aug-28 04:26 025 0 gusting 3 23.3
2014-Aug-28 04:11 042 23.9
2014-Aug-28 03:56 050 23.3
2014-Aug-28 03:41 015 23.3
2014-Aug-28 03:26 005 23.3
2014-Aug-28 03:11 015 23.3
2014-Aug-28 02:58 039 23.3
2014-Aug-28 02:43 032 23.3
2014-Aug-28 02:26 007 22.8
2014-Aug-28 02:11 004 22.8
2014-Aug-28 01:56 314 23.3
2014-Aug-28 01:41 358 23.9
2014-Aug-28 01:26 358 23.9
2014-Aug-28 01:11 359 24.4
2014-Aug-28 00:56 107 25.6
2014-Aug-28 00:41 094 26.1
2014-Aug-28 00:28 070 26.1
2014-Aug-27 23:56 089 25.6
2014-Aug-27 23:41 089 26.7
2014-Aug-27 23:26 117 26.7
2014-Aug-27 23:11 076 25.6
2014-Aug-27 22:56 076 26.1
2014-Aug-27 22:41 077 27.2
2014-Aug-27 22:26 120 26.7
2014-Aug-27 22:11 201 26.1
2014-Aug-27 21:58 201 26.7
2014-Aug-27 21:26 214 27.2
2014-Aug-27 21:11 214 27.8
2014-Aug-27 20:56 355 28.9
2014-Aug-27 20:41 010 29.4
2014-Aug-27 20:11 027 1 gusting 4 29.4
2014-Aug-27 19:56 032 0 gusting 2 29.4
2014-Aug-27 19:41 018 0 gusting 3 30.0
2014-Aug-27 19:26 326 0 gusting 1 30.6
2014-Aug-27 19:13 302 31.1
2014-Aug-27 17:57 235 31.7
2014-Aug-27 17:42 218 0 gusting 4 31.7
2014-Aug-27 17:26 242 1 gusting 6 32.2
2014-Aug-27 16:27 288 4 gusting 6 32.8
2014-Aug-27 16:13 335 32.8
2014-Aug-27 13:27 252 6 gusting 10 32.2
2014-Aug-27 13:11 251 0 gusting 3 32.2
2014-Aug-27 12:58 124 1 gusting 7 31.7
2014-Aug-27 11:13 136 4 gusting 6 29.4
2014-Aug-27 10:58 104 0 gusting 3 29.4
2014-Aug-27 10:27 252 0 gusting 5 29.4
2014-Aug-27 10:12 155 28.3
2014-Aug-27 09:58 141 28.3
2014-Aug-27 09:42 169 27.8
2014-Aug-27 09:32 153 27.2
2014-Aug-27 08:57 141 26.1
2014-Aug-27 08:42 082 25.6
2014-Aug-27 08:27 032 3 gusting 4 25.0
2014-Aug-27 07:57 102 24.4
2014-Aug-27 07:42 091 3 gusting 6 23.9
2014-Aug-27 07:28 101 0 gusting 6 24.4
2014-Aug-27 07:11 041 22.8
2014-Aug-27 07:02 082 23.3
2014-Aug-27 06:28 101 22.8
2014-Aug-27 06:11 099 22.2
2014-Aug-27 05:55 097 21.7
2014-Aug-27 05:41 124 21.7
2014-Aug-27 05:26 128 21.7
2014-Aug-27 05:10 152 22.2